User: anonymous   Login
Location: Observatorio Las Palmas
(29.0667°N, 110.9333°W)
Time: 01:02:03
(UTC-07:00)
Language:

Skynet4D Del rocket - Orbit

View from above orbital plane
View from above orbital plane
View from above satellite
View from above satellite

Ground track
Ground track

The orbit data is extracted from the following two-line orbital elements,

1 25135U 98002B   16236.62657991 +.00000158 +00000-0 +31004-4 0  9994
2 25135 026.8859 292.3491 0356196 215.5906 311.6240 13.62335729927606
Epoch (UTC): 23 August 2016 15:02:16
Eccentricity: 0.0356196
inclination: 26.8859°
perigee height: 763 km
apogee height: 1291 km
right ascension of ascending node: 292.3491°
argument of perigee: 215.5906°
revolutions per day: 13.62335729
mean anomaly at epoch: 311.6240°
orbit number at epoch: 92760

The dashed part of the orbit path shows where the satellite is in the earth's shadow,  

DLR